Weather History for Harrisburg, IL

Change the Weather History Date:

Sunday, April 14, 2013

  Actual Average (KMWA) Record (KMWA)
Temperature  
Mean Temperature 60 °F -  
Max Temperature 75 °F 66 °F 87 °F (2006)
Min Temperature 44 °F 44 °F 31 °F (1971)
Degree Days  
Heating Degree Days 6    
Growing Degree Days 10 (Base 50)    
Moisture  
Dew Point 43 °F    
Average Humidity 57    
Maximum Humidity 81    
Minimum Humidity 31    
Precipitation  
Precipitation 0.00 in - - ()
Sea Level Pressure  
Sea Level Pressure 29.85 in    
Wind  
Wind Speed 9 mph (SE)    
Max Wind Speed 26 mph    
Max Gust Speed 32 mph    
Visibility 10 miles    
Events      
Averages and records for this station are not official NWS values.
T = Trace of Precipitation, MM = Missing Value Source: NWS Daily Summary

Daily Weather History Graph

Daily Weather History Graph

Search for Another Location

Airport:

Trip Planner

Search our weather history database for the weather conditions in past years. The results will help you decide how hot, cold, wet, or windy it might be!

Date:

Astronomy

Apr. 14, 2013 Rise Set
Actual Time 6:20 AM CDT 7:29 PM CDT
Civil Twilight 5:53 AM CDT 7:56 PM CDT
Nautical Twilight 5:20 AM CDT 8:28 PM CDT
Astronomical Twilight 4:47 AM CDT 9:02 PM CDT
Moon 9:00 AM CDT (4/14) 11:39 PM CDT (4/14)
Length of Visible Light 14h 03m
Length of Day
13h 09m
Waxing Crescent, 17% of the Moon is Illuminated
Apr 14
Waxing Crescent
Apr 18
First Quarter
Apr 25
Full
May 2
Last Quarter
May 9
New

Hourly Weather History & Observations

Time (CDT) Temp. Windchill Dew Point Humidity Pressure Visibility Wind Dir Wind Speed Gust Speed Precip Events Conditions
12:15 AM 48.2 °F - 41.0 °F 76% 29.96 in 10.0 mi SE 4.6 mph - N/A   Clear
12:35 AM 48.2 °F - 41.0 °F 76% 29.95 in 10.0 mi ESE 5.8 mph - N/A   Clear
12:55 AM 46.4 °F 44.3 °F 41.0 °F 81% 29.95 in 10.0 mi SE 4.6 mph - N/A   Clear
1:15 AM 48.2 °F - 41.0 °F 76% 29.95 in 10.0 mi SE 5.8 mph - N/A   Clear
1:35 AM 46.4 °F 44.3 °F 41.0 °F 81% 29.95 in 10.0 mi ESE 4.6 mph - N/A   Clear
1:55 AM 46.4 °F 45.2 °F 41.0 °F 81% 29.95 in 10.0 mi East 3.5 mph - N/A   Clear
2:15 AM 46.4 °F 45.2 °F 41.0 °F 81% 29.94 in 10.0 mi East 3.5 mph - N/A   Clear
2:35 AM 46.4 °F 45.2 °F 41.0 °F 81% 29.94 in 10.0 mi NE 3.5 mph - N/A   Clear
2:55 AM 46.4 °F 44.3 °F 39.2 °F 76% 29.93 in 10.0 mi East 4.6 mph - N/A   Clear
3:15 AM 44.6 °F 43.1 °F 39.2 °F 81% 29.93 in 10.0 mi East 3.5 mph - N/A   Clear
3:35 AM 46.4 °F 44.3 °F 39.2 °F 76% 29.92 in 10.0 mi East 4.6 mph - N/A   Clear
3:55 AM 46.4 °F 45.2 °F 39.2 °F 76% 29.91 in 10.0 mi East 3.5 mph - N/A   Clear
4:15 AM 44.6 °F 43.1 °F 39.2 °F 81% 29.90 in 10.0 mi ENE 3.5 mph - N/A   Clear
4:35 AM 46.4 °F - 39.2 °F 76% 29.90 in 10.0 mi Calm Calm - N/A   Clear
4:55 AM 44.6 °F 42.2 °F 39.2 °F 81% 29.89 in 10.0 mi East 4.6 mph - N/A   Clear
5:15 AM 44.6 °F 41.4 °F 39.2 °F 81% 29.90 in 10.0 mi SE 5.8 mph - N/A   Clear
5:35 AM 46.4 °F 42.9 °F 41.0 °F 81% 29.91 in 10.0 mi ESE 6.9 mph - N/A   Clear
5:55 AM 46.4 °F 43.5 °F 41.0 °F 81% 29.90 in 10.0 mi East 5.8 mph - N/A   Clear
6:15 AM 46.4 °F 43.5 °F 41.0 °F 81% 29.90 in 10.0 mi East 5.8 mph - N/A   Clear
6:35 AM 46.4 °F 44.3 °F 41.0 °F 81% 29.90 in 10.0 mi East 4.6 mph - N/A   Clear
6:55 AM 46.4 °F 42.9 °F 41.0 °F 81% 29.90 in 10.0 mi ESE 6.9 mph - N/A   Clear
7:15 AM 50.0 °F - 42.8 °F 76% 29.91 in 10.0 mi ESE 3.5 mph - N/A   Clear
7:35 AM 50.0 °F - 42.8 °F 76% 29.91 in 10.0 mi ESE 3.5 mph - N/A   Clear
7:55 AM 51.8 °F - 42.8 °F 71% 29.91 in 10.0 mi ESE 5.8 mph - N/A   Clear
8:15 AM 51.8 °F - 44.6 °F 76% 29.91 in 10.0 mi East 3.5 mph - N/A   Clear
8:35 AM 53.6 °F - 44.6 °F 72% 29.90 in 10.0 mi East 4.6 mph - N/A   Clear
8:55 AM 55.4 °F - 44.6 °F 67% 29.90 in 10.0 mi ESE 5.8 mph - N/A   Clear
9:15 AM 59.0 °F - 46.4 °F 63% 29.89 in 10.0 mi SE 5.8 mph - N/A   Clear
9:35 AM 60.8 °F - 44.6 °F 55% 29.89 in 10.0 mi SSE 9.2 mph - N/A   Clear
9:55 AM 62.6 °F - 42.8 °F 48% 29.88 in 10.0 mi SSE 10.4 mph - N/A   Clear
10:15 AM 64.4 °F - 42.8 °F 45% 29.87 in 10.0 mi SSE 11.5 mph - N/A   Clear
10:35 AM 68.0 °F - 42.8 °F 40% 29.86 in 10.0 mi SSE 11.5 mph - N/A   Clear
10:55 AM 68.0 °F - 42.8 °F 40% 29.85 in 10.0 mi SSE 10.4 mph - N/A   Clear
11:15 AM 68.0 °F - 42.8 °F 40% 29.85 in 10.0 mi SSE 9.2 mph - N/A   Clear
11:35 AM 69.8 °F - 42.8 °F 38% 29.85 in 10.0 mi SSE 12.7 mph - N/A   Clear
11:55 AM 71.6 °F - 41.0 °F 33% 29.84 in 10.0 mi SSE 16.1 mph - N/A   Clear
12:15 PM 71.6 °F - 42.8 °F 35% 29.84 in 10.0 mi SSE 16.1 mph 19.6 mph N/A   Clear
12:35 PM 73.4 °F - 41.0 °F 31% 29.83 in 10.0 mi South 13.8 mph - N/A   Clear
12:55 PM 73.4 °F - 42.8 °F 33% 29.81 in 10.0 mi South 15.0 mph 20.7 mph N/A   Clear
1:15 PM 73.4 °F - 42.8 °F 33% 29.81 in 10.0 mi South 13.8 mph - N/A   Clear
1:35 PM 73.4 °F - 44.6 °F 36% 29.80 in 10.0 mi South 15.0 mph - N/A   Clear
1:55 PM 73.4 °F - 42.8 °F 33% 29.80 in 10.0 mi SSE 15.0 mph - N/A   Clear
2:15 PM 73.4 °F - 44.6 °F 36% 29.79 in 10.0 mi South 16.1 mph 23.0 mph N/A   Clear
2:35 PM 75.2 °F - 44.6 °F 34% 29.78 in 10.0 mi South 24.2 mph 28.8 mph N/A   Clear
2:55 PM 75.2 °F - 42.8 °F 31% 29.77 in 10.0 mi South 17.3 mph 24.2 mph N/A   Clear
3:15 PM 75.2 °F - 44.6 °F 34% 29.77 in 10.0 mi SSE 21.9 mph 26.5 mph N/A   Clear
3:35 PM 75.2 °F - 44.6 °F 34% 29.76 in 10.0 mi SSE 20.7 mph 28.8 mph N/A   Clear
3:55 PM 75.2 °F - 44.6 °F 34% 29.76 in 10.0 mi South 24.2 mph 28.8 mph N/A   Clear
4:15 PM 75.2 °F - 44.6 °F 34% 29.75 in 10.0 mi South 16.1 mph 26.5 mph N/A   Clear
4:35 PM 73.4 °F - 44.6 °F 36% 29.75 in 10.0 mi South 26.5 mph 32.2 mph N/A   Clear
4:55 PM 73.4 °F - 44.6 °F 36% 29.76 in 10.0 mi South 23.0 mph 28.8 mph N/A   Clear
5:15 PM 73.4 °F - 46.4 °F 38% 29.76 in 10.0 mi South 20.7 mph 27.6 mph N/A   Clear
5:35 PM 71.6 °F - 46.4 °F 41% 29.76 in 10.0 mi South 20.7 mph 28.8 mph N/A   Clear
5:55 PM 71.6 °F - 46.4 °F 41% 29.77 in 10.0 mi South 21.9 mph 29.9 mph N/A   Clear
6:15 PM 71.6 °F - 46.4 °F 41% 29.76 in 10.0 mi South 17.3 mph 27.6 mph N/A   Clear
6:35 PM 69.8 °F - 46.4 °F 43% 29.76 in 10.0 mi SSE 20.7 mph 28.8 mph N/A   Scattered Clouds
6:55 PM 69.8 °F - 44.6 °F 40% 29.78 in 10.0 mi South 23.0 mph 27.6 mph N/A   Scattered Clouds
7:15 PM 68.0 °F - 44.6 °F 43% 29.78 in 10.0 mi SSE 20.7 mph 29.9 mph N/A   Clear
7:35 PM 66.2 °F - 44.6 °F 46% 29.78 in 10.0 mi SSE 20.7 mph 26.5 mph N/A   Clear
7:55 PM 64.4 °F - 44.6 °F 49% 29.79 in 10.0 mi SE 19.6 mph 27.6 mph N/A   Clear
8:15 PM 64.4 °F - 44.6 °F 49% 29.80 in 10.0 mi SSE 18.4 mph 27.6 mph N/A   Clear
8:35 PM 62.6 °F - 44.6 °F 52% 29.80 in 10.0 mi SE 19.6 mph 25.3 mph N/A   Clear
8:55 PM 62.6 °F - 44.6 °F 52% 29.81 in 10.0 mi SSE 16.1 mph 21.9 mph N/A   Clear
9:15 PM 62.6 °F - 44.6 °F 52% 29.81 in 10.0 mi SE 15.0 mph 21.9 mph N/A   Clear
9:35 PM 60.8 °F - 46.4 °F 59% 29.82 in 10.0 mi SSE 16.1 mph 20.7 mph N/A   Clear
9:55 PM 60.8 °F - 46.4 °F 59% 29.82 in 10.0 mi SE 16.1 mph - N/A   Clear
10:15 PM 60.8 °F - 46.4 °F 59% 29.82 in 10.0 mi SSE 13.8 mph 20.7 mph N/A   Clear
10:35 PM 59.0 °F - 46.4 °F 63% 29.81 in 10.0 mi SE 15.0 mph - N/A   Clear
10:55 PM 59.0 °F - 46.4 °F 63% 29.83 in 10.0 mi SSE 13.8 mph - N/A   Clear
11:15 PM 59.0 °F - 46.4 °F 63% 29.82 in 10.0 mi SSE 12.7 mph - N/A   Clear
11:35 PM 59.0 °F - 46.4 °F 63% 29.83 in 10.0 mi SSE 11.5 mph - N/A   Clear
11:55 PM 59.0 °F - 48.2 °F 67% 29.84 in 10.0 mi SSE 12.7 mph - N/A   Clear